TimeAKDT,TemperatureF,Dew PointF,Humidity,Sea Level PressureIn,VisibilityMPH,Wind Direction,Wind SpeedMPH,Gust SpeedMPH,PrecipitationIn,Events,Conditions,WindDirDegrees,DateUTC
12:53 AM,32.0,25.0,75,29.97,10.0,North,8.1,-,N/A,,Clear,10,2013-10-24 08:53:00
1:53 AM,32.0,25.0,75,29.95,10.0,NE,19.6,-,N/A,,Clear,40,2013-10-24 09:53:00
2:53 AM,32.0,24.1,73,29.94,10.0,NNE,20.7,-,N/A,,Clear,30,2013-10-24 10:53:00
3:53 AM,32.0,25.0,75,29.93,10.0,NNE,20.7,-,N/A,,Clear,20,2013-10-24 11:53:00
4:53 AM,32.0,24.1,73,29.91,10.0,NNE,19.6,27.6,N/A,,Clear,30,2013-10-24 12:53:00
5:53 AM,33.1,23.0,66,29.87,10.0,NNE,19.6,24.2,N/A,,Clear,30,2013-10-24 13:53:00
6:53 AM,33.1,23.0,66,29.84,10.0,NNE,21.9,28.8,N/A,,Clear,30,2013-10-24 14:53:00
7:53 AM,32.0,23.0,69,29.81,10.0,NNE,25.3,32.2,N/A,,Clear,30,2013-10-24 15:53:00
8:53 AM,32.0,21.9,66,29.79,10.0,NNE,25.3,33.4,N/A,,Mostly Cloudy,30,2013-10-24 16:53:00
9:53 AM,33.1,21.9,64,29.76,10.0,NE,25.3,36.8,N/A,,Mostly Cloudy,40,2013-10-24 17:53:00
10:53 AM,33.1,21.9,64,29.73,10.0,NE,27.6,38.0,N/A,,Mostly Cloudy,40,2013-10-24 18:53:00
11:53 AM,33.1,21.0,61,29.71,10.0,NNE,29.9,39.1,N/A,,Mostly Cloudy,30,2013-10-24 19:53:00
12:53 PM,34.0,21.0,59,29.69,10.0,NNE,25.3,36.8,N/A,,Mostly Cloudy,30,2013-10-24 20:53:00
1:53 PM,34.0,21.9,61,29.65,10.0,NNE,28.8,41.4,N/A,,Mostly Cloudy,30,2013-10-24 21:53:00
2:53 PM,34.0,21.9,61,29.60,10.0,NNE,35.7,42.6,N/A,,Mostly Cloudy,30,2013-10-24 22:53:00
3:53 PM,35.1,21.0,57,29.55,10.0,NNE,35.7,47.2,N/A,,Mostly Cloudy,30,2013-10-24 23:53:00
4:53 PM,36.0,21.0,55,29.51,10.0,NNE,36.8,52.9,0.00,,Widespread Dust,30,2013-10-25 00:53:00
5:53 PM,35.1,21.0,57,29.48,10.0,NE,32.2,44.9,N/A,,Widespread Dust,40,2013-10-25 01:53:00
6:53 PM,34.0,21.0,59,29.47,10.0,NE,28.8,38.0,N/A,,Widespread Dust,40,2013-10-25 02:53:00
7:53 PM,34.0,21.0,59,29.46,10.0,NE,21.9,33.4,N/A,,Scattered Clouds,50,2013-10-25 03:53:00
8:53 PM,34.0,21.9,61,29.46,10.0,NE,20.7,29.9,N/A,,Overcast,50,2013-10-25 04:53:00
9:53 PM,33.1,25.0,72,29.45,3.0,NE,25.3,33.4,0.00,Snow,Light Snow,50,2013-10-25 05:53:00
10:14 PM,32.0,26.6,80,29.44,3.0,NE,20.7,35.7,0.00,Snow,Light Snow,50,2013-10-25 06:14:00
10:44 PM,32.0,28.4,87,29.44,1.5,NE,20.7,29.9,0.00,Snow,Light Snow,50,2013-10-25 06:44:00
10:53 PM,32.0,28.0,85,29.44,1.2,NE,20.7,28.8,0.00,Snow,Light Snow,50,2013-10-25 06:53:00
11:21 PM,32.0,28.4,87,29.43,2.5,NE,19.6,33.4,0.01,Snow,Light Snow,50,2013-10-25 07:21:00
11:53 PM,32.0,28.9,88,29.43,2.5,NE,19.6,27.6,0.02,Snow,Light Snow,50,2013-10-25 07:53:00